This is the latest recevied weather packets stored in our database for station/object N2UFM. If no packets are shown the sender has not sent any weather packets the latest 1 day(s).
| Time | Temp. | Humidity | Pressure | Rain* | Wind** | Luminosity | Snow |
|---|---|---|---|---|---|---|---|
| 1777978429 | 16.11° C | 75% | 1012.2 hPa | 0 mm | 0.45 m/s, 236° | - | - |
| 1777978129 | 16.11° C | 75% | 1012.2 hPa | 0 mm | 0 m/s | - | - |
| 1777977829 | 16.11° C | 75% | 1012.2 hPa | 0 mm | 0.45 m/s, 229° | - | - |
| 1777977529 | 16.11° C | 76% | 1012.2 hPa | 0 mm | 0.89 m/s, 236° | - | - |
| 1777977229 | 15.56° C | 76% | 1012.2 hPa | 0 mm | 0.45 m/s, 238° | - | - |
| 1777976929 | 15.56° C | 77% | 1012.1 hPa | 0 mm | 0 m/s | - | - |
| 1777976628 | 15.56° C | 77% | 1012.2 hPa | 0 mm | 0.45 m/s, 200° | - | - |
| 1777976328 | 15.56° C | 77% | 1012.3 hPa | 0 mm | 0 m/s | - | - |
| 1777976028 | 15.56° C | 77% | 1012.1 hPa | 0 mm | 0.45 m/s, 217° | - | - |
| 1777975728 | 15.56° C | 77% | 1012 hPa | 0 mm | 0 m/s | - | - |
| 1777975428 | 15° C | 78% | 1011.7 hPa | 0 mm | 0 m/s | - | - |
| 1777975128 | 15° C | 78% | 1011.5 hPa | 0 mm | 0 m/s | - | - |
| 1777974828 | 15° C | 78% | 1011.5 hPa | 0 mm | 0 m/s | - | - |
| 1777974527 | 15° C | 78% | 1011.4 hPa | 0 mm | 0 m/s | - | - |
| 1777974233 | 15° C | 77% | 1011.3 hPa | 0 mm | 0.45 m/s, 214° | - | - |
| 1777973927 | 15° C | 77% | 1011.2 hPa | 0 mm | 0.45 m/s, 227° | - | - |
| 1777973627 | 15° C | 77% | 1011.2 hPa | 0 mm | 0.89 m/s, 200° | - | - |
| 1777973327 | 15° C | 77% | 1011.3 hPa | 0 mm | 0.45 m/s, 222° | - | - |
| 1777973027 | 15° C | 77% | 1011.2 hPa | 0 mm | 0 m/s | - | - |
| 1777972726 | 15° C | 77% | 1011.2 hPa | 0 mm | 0.89 m/s, 267° | - | - |
| 1777972426 | 15° C | 77% | 1011.2 hPa | 0 mm | 0 m/s | - | - |
| 1777972126 | 15° C | 77% | 1011.2 hPa | 0 mm | 0 m/s | - | - |
| 1777971826 | 15° C | 78% | 1011.1 hPa | 0 mm | 0.45 m/s, 223° | - | - |
| 1777971526 | 15° C | 78% | 1011.1 hPa | 0 mm | 0.45 m/s, 219° | - | - |
| 1777971226 | 14.44° C | 78% | 1011.2 hPa | 0 mm | 0.45 m/s, 224° | - | - |
* Rain latest hour (hover to see other rain measurements)
** Current wind speed in m/s (hover to see current wind gust speed)